Regional Weather Roundup
Issued by NWS

Home | Current Version | Previous Version | Text Only | Print | Product List | Glossary On
Versions: 1 2 3 4 5 6 7 8 9 10 11 12 13 14 15 16 17 18 19 20 21 22 23 24 25 26 27 28 29 30 31 32 33 34 35 36 37 38 39 40 41 42 43 44 45 46 47 48 49 50
000
ASUS42 KKEY 040610
RWRKEY

FLORIDA REGIONAL WEATHER ROUNDUP FOR THE FLORIDA KEYS
NATIONAL WEATHER SERVICE KEY WEST FLORIDA
200 AM EDT MON MAY 04 2015

...SOUTH FLORIDA AND THE KEYS...

CITY           SKY/WX    TMP DP  RH WIND       PRES   REMARKS
FORT MYERS     PTCLDY    68  57  68 E9        30.14S
SW REGIONAL AP PTCLDY    67  56  67 E12       30.15S
NAPLES         PTCLDY    69  56  62 E9        30.14S
MIAMI          MOCLDY    74  54  49 NE12      30.12F
WEST KENDALL   PTCLDY    73  55  53 E10       30.12F
HOMESTEAD      PTCLDY    74  57  55 NE13      30.10F
MARATHON       MOCLDY    76  61  59 E13       30.07F
BOCA CHICA NAS PTCLDY    75  61  61 E12       30.07F
KEY WEST INTL  PTCLDY    75  61  61 NE12G20   30.07F

...INTERNATIONAL WEATHER...

CITY           SKY/WX    TMP DP  RH WIND       PRES   REMARKS
NASSAU BAHAMAS MOCLDY    73  66  78 NE6       30.11F
CANCUN MEXICO  PTCLDY    77  66  69 E6        29.98S
COZUMEL MEXICO PTCLDY    72  70  94 CALM      29.98F

ADJACENT COASTAL WATERS...

STATION/POSITION TIME  SKY/WX   TEMP    WIND        PRES    WAVE
                                AIR SEA DIR/SP/G            HT/PER
                 (UTC)          (F)     (DEG/KT/KT) (MB)    (FT/S)
PULASKI SHOAL LI 0500            78      90/ 25/ 27 1018.0F
SAND KEY         0550            77      70/ 22/ 25 1017.8F
SOMBRERO KEY     0600            76      80/ 21/ 24 1018.2F
LONG KEY         0500            76 76   90/ 19/ 20 1020.0F
MOLASSES REEF    0600            76 79   80/ 19/ 23 1018.5F
FOWEY ROCKS      NOT AVBL

$$


USA.gov is the U.S. government's official web portal to all federal, state and local government web resources and services.